Location: Alsip
(41.6689°N, 87.7387°W)
Time: 13:51:58
(UTC+00:00)

Abrixas rocket - Pass Details

Date: 14 July 2020
Orbit: 339 x 347 km, 48.4° (Epoch: 04 August)

Event Time Altitude Azimuth Distance (km) Brightness Sun altitude
Rises 09:11:04 0° 298° (WNW) 2,125 5.7 -12.4°
Reaches altitude 10° 09:13:05 10° 299° (WNW) 1,283 4.5 -12.2°
Maximum altitude 09:15:57 86° 27° (NNE) 343 1.8 -11.8°
Drops below altitude 10° 09:18:48 10° 118° (ESE) 1,277 4.9 -11.4°
Sets 09:20:48 0° 119° (ESE) 2,113 6.1 -11.1°
